Location: Dreilärchen
(47.9312°N, 8.6113°E)
Time: 00:23:09
(UTC+00:00)

Cosmos 1980 - Pass Details

Date: 26 May 2022
Orbit: 840 x 846 km, 71.0° (Epoch: 02 July)

Event Time Altitude Azimuth Distance (km) Brightness Sun altitude
Exits shadow 00:20:12 38° 185° (S) 1,271 4.1 -19.8°
Maximum altitude 00:22:24 70° 114° (ESE) 895 3.7 -19.7°
Drops below altitude 10° 00:28:01 10° 31° (NNE) 2,466 7.2 -19.4°
Sets 00:30:29 0° 30° (NNE) 3,405 8.3 -19.3°
